Regional Weather Roundup
Issued by NWS Upton, NY

Current Version | Previous Version | Graphics & Text | Print | Product List | Glossary Off
Versions: 1 2 3 4 5 6 7 8 9 10 11 12 13 14 15 16 17 18 19 20 21 22 23 24 25 26 27

000
ASUS41 KOKX 240908
RWROKX

REGIONAL WEATHER ROUNDUP
NATIONAL WEATHER SERVICE NEW YORK NY
500 AM EDT MON APR 24 2017

NOTE: "FAIR" INDICATES FEW OR NO CLOUDS BELOW 12,000 FEET WITH NO
SIGNIFICANT WEATHER AND/OR OBSTRUCTIONS TO VISIBILITY.

NYZ071-072-176-178-NJZ106-104-241000-
NEW YORK CITY METRO AREA

CITY           SKY/WX    TMP DP  RH WIND       PRES   REMARKS
Central Park   CLEAR     50  41  71 CALM      30.15R
Wall St Helipt MOSUNNY   48  44  86 CALM      30.14R
Bronx Bot Gard   N/A     43  41  93 N1        30.14R
LaGuardia APRT MOCLDY    49  43  80 E3        30.12R
Kennedy INTL   PTCLDY    44  43  96 CALM      30.14R
Breezy Point     N/A     46 N/A N/A S3          N/A
Newark/Liberty MOCLDY    48  43  82 CALM      30.12R
Teterboro      PTCLDY    45  41  86 CALM      30.12R
$$

NYZ177-179-078>081-241000-
LONG ISLAND NEW YORK

CITY           SKY/WX    TMP DP  RH WIND       PRES   REMARKS
Jones Beach      N/A     46 N/A N/A SE3         N/A
Matinecock PT    N/A     46 N/A N/A CALM        N/A
Farmingdale    CLOUDY    42  41  96 CALM      30.14R FOG
MacArthur/ISP  CLEAR     39  38  96 CALM      30.12S
Shirley        CLOUDY    34  34 100 CALM      30.14S FOG
Mt Sinai Harb    N/A    N/A N/A N/A S1          N/A
Westhampton    PTCLDY    29  27  92 CALM      30.15S
East Hampton   FOG       31  31  99 CALM      30.14S VSB 1/2
Montauk          N/A     44  42  93 CALM      30.16R
$$

NYZ052-065-067-241000-
HUDSON VALLEY

CITY           SKY/WX    TMP DP  RH WIND       PRES   REMARKS
White Plains   CLEAR     42  40  92 CALM      30.11S
Larchmont Harb   N/A     43 N/A N/A NW1         N/A
Croton O-T Hud   N/A     43 N/A N/A NE1         N/A
Newburgh       CLEAR     43  41  93 CALM      30.10S
Montgomery     CLEAR     41  39  93 SW5       30.10R
Poughkeepsie   CLEAR     40  37  89 CALM      30.11R
Albany         CLEAR     41  35  79 CALM      30.10R
$$

NJZ001-105-106-008-010-013-015-019>022-104-241000-
NEW JERSEY

CITY           SKY/WX    TMP DP  RH WIND       PRES   REMARKS
Newark/Liberty MOCLDY    48  43  82 CALM      30.12R
Teterboro      PTCLDY    45  41  86 CALM      30.12R
Caldwell       CLEAR     43  40  89 CALM      30.13R
Somerville     CLOUDY    41  39  93 CALM      30.10S
Linden           N/A     46  41  85 CALM      30.12S
Sussex         CLEAR     38  38 100 CALM      30.11S
Andover          N/A     42  40  92 CALM      30.10S
Trenton        CLOUDY    46  44  93 E3        30.10F
Millville      CLOUDY    49  46  90 NE6       30.08S
Atlantic City  CLOUDY    49  44  83 NE3       30.09S
Wrightstown    CLOUDY    45  44  95 CALM      30.08S
Toms River     CLOUDY    44  43  96 NE3       30.11F
Belmar         CLOUDY    46  44  93 NE3       30.12F
$$

PAZ047>061-062-071-241000-
EASTERN PENNSYLVANIA

CITY           SKY/WX    TMP DP  RH WIND       PRES   REMARKS
Philadelphia   CLOUDY    50  45  83 E5        30.11S
Allentown      CLOUDY    43  39  86 N5        30.10R
Scranton       CLEAR     45  36  70 E8        30.09S
$$

CTZ002-004>006-009-010-012-RIZ004-006-007-MAZ004-011-015-241000-
SOUTHERN NEW ENGLAND
 IN CT

CITY           SKY/WX    TMP DP  RH WIND       PRES   REMARKS
Bradley INTL   PTCLDY    42  39  89 S7        30.12R
Hartford       PTCLDY    44  40  85 S3        30.13R
Danbury        CLEAR     36  36 100 SW3       30.13S
Wtrbury/Oxford CLEAR     41  36  81 CALM      30.13S
Bridgeport     CLEAR     44  40  85 CALM      30.13R
Meriden        CLEAR     40  37  89 CALM      30.13S
New Haven      CLEAR     38  36  92 CALM      30.13S FOG
Chester          N/A     39  39 100 CALM      30.13R
Groton         CLEAR     39  36  89 CALM      30.14R
Wilimantic     CLEAR     39  37  92 CALM      30.14R

 IN RI

CITY           SKY/WX    TMP DP  RH WIND       PRES   REMARKS
Providence     PTCLDY    40  39  97 S6        30.14R
Block Island   CLEAR     42  41  96 SW6       30.15S
Westerly       CLEAR     38  36  92 CALM      30.14S
 IN MA

CITY           SKY/WX    TMP DP  RH WIND       PRES   REMARKS
Boston         PTCLDY    45  38  76 SW10      30.10S
Worcester      CLEAR     43  35  73 W13       30.09S
Westfield      CLEAR     39  39 100 CALM      30.11R
Provincetown   CLEAR     44  41  89 S13       30.13R
Nantucket      CLEAR     44  41  89 SW7       30.15S
$$

ANZ330-335-338-340-345-350-353-355-241000-
COASTAL MARINE OBSERVATIONS


STATION/POSITION TIME  SKY/WX   TEMP    WIND        PRES    VSBY  WAVE
                                AIR SEA DIR/SP/G                  HT/PER
                 (UTC)          (F)     (DEG/KT/KT) (MB)    (MI)  (FT/S)
NY HARB ENTRANCE 0750            49 49     CALM     1019.9          3/11
20 S FIRE ISLAND 0850            47 48  140/  4/  6 1019.9          3/11
GREAT SOUTH BAY  0815            48 56  170/  2/  4   N/A
23 SSW MONTAUK P 0750            45 45              1020.9          2/11
15 E BARNEGAT LI 0830               51                N/A           4/12
HUDSON CANYON    0750            48 47   90/  6/  8 1019.4          3/11
KINGS POINT      0842            46 49     CALM     1019.9
EXECUTION ROCKS  NOT AVBL
CENTRAL LI SOUND 0830            46     180/  4/  6   N/A           0
EASTERN LI SOUND NOT AVBL
ROBBINS REEF     0842            48     180/  5/  5 1020.2
$$


>>>>>>>>>>>>>>>>>>>>>>>>>>>> KEY <<<<<<<<<<<<<<<<<<<<<<<<<<<
>                                                          <
>     SKY/WX - Sky Condition/Present Weather               <
>     TMP    - Temperature in Fahrenheit                   <
>     DP     - Dew Point in Fahrenheit                     <
>     RH     - Relative Humidity in Percent                <
>     WIND   - Direction (from) and Speed in MPH           <
>     PRES   - Mean Sea Level Pressure (inches of Hg)      <
>     WCI    - Wind Chill Index                            <
>     VSB    - VISIBILITY IN MILES                         <
>     HX     - HEAT INDEX                                  <
>     TC     - TEMPERATURE IN CELSIUS                      <
>     VRB    - VARIABLE WIND DIRECTION                     <
>                                                          <
>>>>>>>>>>>>>>>>>>>>>>>>>>>> KEY <<<<<<<<<<<<<<<<<<<<<<<<<<<




USA.gov is the U.S. government's official web portal to all federal, state and local government web resources and services.